Aurora, CO

6:34 AM MDT on October 24, 2017 (GMT -0600)
Buckley Air Force Base

Weather History for KBKF - February, 2013

Change the Weather History Date:

Sunday, February 17, 2013

  Actual Average Record
Temperature  
Mean Temperature 45 °F -  
Max Temperature 60 °F 44 °F 68 °F (2016)
Min Temperature 26 °F 22 °F -11 °F (2006)
Degree Days  
Heating Degree Days 20    
Moisture  
Dew Point 1 °F    
Average Humidity 25    
Maximum Humidity 80    
Minimum Humidity 4    
Precipitation  
Precipitation 0.00 in - - ()
Sea Level Pressure  
Sea Level Pressure 29.67 in    
Wind  
Wind Speed 13 mph (SSW)    
Max Wind Speed 24 mph    
Max Gust Speed 29 mph    
Visibility 10 miles    
Events      
Averages and records for this station are not official NWS values.
T = Trace of Precipitation, MM = Missing Value Source: NWS Daily Summary

Daily Weather History Graph

Daily Weather History Graph

Search for Another Location

Airport or City:

Trip Planner

Search our weather history database for the weather conditions in past years. The results will help you decide how hot, cold, wet, or windy it might be!

Date:

Astronomy

Feb. 17, 2013 Rise Set
Actual Time 6:48 AM MST 5:38 PM MST
Civil Twilight 6:20 AM MST 6:05 PM MST
Nautical Twilight 5:49 AM MST 6:37 PM MST
Astronomical Twilight 5:18 AM MST 7:08 PM MST
Moon 10:44 AM MST (2/17) 12:34 AM MST (2/17)
Length of Visible Light 11h 44m
Length of Day
10h 49m
Waxing Crescent, 49% of the Moon is Illuminated
Feb 17
Waxing Crescent
Feb 17
First Quarter
Feb 25
Full
Mar 4
Last Quarter
Mar 11
New

Hourly Weather History & Observations

Time (MST) Temp. Windchill Dew Point Humidity Pressure Visibility Wind Dir Wind Speed Gust Speed Precip Events Conditions
12:55 AM 32.0 °F 24.2 °F 8.6 °F 38% 29.90 in 10.0 mi South 9.2 mph - N/A   Scattered Clouds
1:55 AM 35.6 °F 25.5 °F 8.6 °F 33% 29.85 in 10.0 mi SSW 17.3 mph - N/A   Scattered Clouds
2:55 AM 35.6 °F 26.6 °F 5.0 °F 28% 29.84 in 10.0 mi SSW 13.8 mph - N/A   Scattered Clouds
3:55 AM 33.8 °F 25.8 °F 5.0 °F 30% 29.82 in 10.0 mi SSW 10.4 mph - N/A   Mostly Cloudy
4:55 AM 32.0 °F 23.0 °F 6.8 °F 35% 29.82 in 10.0 mi South 11.5 mph - N/A   Mostly Cloudy
5:55 AM 32.0 °F 22.1 °F 3.2 °F 30% 29.80 in 10.0 mi South 13.8 mph - N/A   Mostly Cloudy
6:55 AM 32.0 °F 23.0 °F 3.2 °F 30% 29.79 in 70.0 mi South 11.5 mph - N/A   Mostly Cloudy
7:55 AM 39.2 °F 31.6 °F -0.4 °F 19% 29.76 in 70.0 mi SSW 12.7 mph - N/A   Mostly Cloudy
8:55 AM 41.0 °F 33.1 °F 1.4 °F 19% 29.75 in 70.0 mi South 15.0 mph - N/A   Mostly Cloudy
9:55 AM 50.0 °F - -4.0 °F 11% 29.67 in 70.0 mi South 24.2 mph 28.8 mph N/A   Mostly Cloudy
10:55 AM 53.6 °F - -9.4 °F 7% 29.64 in 70.0 mi South 18.4 mph - N/A   Mostly Cloudy
11:55 AM 59.0 °F - -13.0 °F 5% 29.59 in 70.0 mi West 11.5 mph - N/A   Mostly Cloudy
12:55 PM 60.8 °F - -11.2 °F 5% 29.53 in 70.0 mi NNW 4.6 mph - N/A   Mostly Cloudy
1:55 PM 59.0 °F - -11.2 °F 5% 29.48 in 70.0 mi NNW 10.4 mph - N/A   Mostly Cloudy
2:55 PM 60.8 °F - -14.8 °F 4% 29.45 in 70.0 mi WNW 15.0 mph 21.9 mph N/A   Mostly Cloudy
3:55 PM 60.8 °F - -11.2 °F 5% 29.44 in 70.0 mi WNW 11.5 mph - N/A   Mostly Cloudy
4:55 PM 57.2 °F - -13.0 °F 5% 29.47 in 70.0 mi West 18.4 mph - N/A   Mostly Cloudy
5:55 PM 48.2 °F - -11.2 °F 8% 29.51 in 70.0 mi SW 6.9 mph - N/A   Scattered Clouds
6:55 PM 42.8 °F 40.1 °F -0.4 °F 16% 29.57 in 25.0 mi East 4.6 mph - N/A   Scattered Clouds
7:55 PM 37.4 °F 26.6 °F 14.0 °F 38% 29.61 in 25.0 mi ENE 21.9 mph 27.6 mph N/A   Scattered Clouds
8:55 PM 32.0 °F 22.5 °F 15.8 °F 51% 29.65 in 25.0 mi NE 12.7 mph 26.5 mph N/A   Scattered Clouds
9:55 PM 32.0 °F 20.1 °F 15.8 °F 51% 29.65 in 25.0 mi North 19.6 mph - N/A   Scattered Clouds
10:55 PM 30.2 °F 19.8 °F 14.0 °F 51% 29.69 in 25.0 mi ENE 13.8 mph 19.6 mph N/A   Scattered Clouds
11:55 PM 26.6 °F 16.2 °F 21.2 °F 80% 29.70 in 25.0 mi East 11.5 mph - N/A   Scattered Clouds